Time,TemperatureF,DewpointF,PressureIn,WindDirection,WindDirectionDegrees,WindSpeedMPH,WindSpeedGustMPH,Humidity,HourlyPrecipIn,Conditions,Clouds,dailyrainin,SoftwareType,DateUTC
2013-04-24 00:00:00,36.7,36.2,30.24,SSW,202,0.0,0.0,98,0.00,CLR,,0.00,WeatherDisplay:10.37,2013-04-24 08:00:00,
2013-04-24 00:05:00,36.7,36.2,30.24,SSW,202,0.0,0.0,98,0.00,CLR,,0.00,WeatherDisplay:10.37,2013-04-24 08:05:00,
2013-04-24 00:10:00,36.7,36.2,30.24,SSW,202,0.0,0.0,98,0.00,CLR,,0.00,WeatherDisplay:10.37,2013-04-24 08:10:00,
2013-04-24 00:15:00,36.7,36.2,30.24,SSW,202,0.0,0.0,98,0.00,CLR,,0.00,WeatherDisplay:10.37,2013-04-24 08:15:00,
2013-04-24 00:20:00,36.7,36.2,30.24,SSW,202,0.0,0.0,98,0.00,CLR,,0.00,WeatherDisplay:10.37,2013-04-24 08:20:00,
2013-04-24 00:25:00,36.5,36.0,30.24,SSW,202,0.0,0.0,98,0.00,CLR,,0.00,WeatherDisplay:10.37,2013-04-24 08:25:00,
2013-04-24 00:30:00,36.3,35.8,30.24,SSW,202,0.0,0.0,98,0.00,CLR,,0.00,WeatherDisplay:10.37,2013-04-24 08:30:00,
2013-04-24 00:35:00,36.3,35.8,30.24,SSW,202,0.0,0.0,98,0.00,CLR,,0.00,WeatherDisplay:10.37,2013-04-24 08:35:00,
2013-04-24 00:40:00,36.1,35.6,30.24,SSW,202,0.0,0.0,98,0.00,CLR,,0.00,WeatherDisplay:10.37,2013-04-24 08:40:00,
2013-04-24 00:45:00,36.1,35.6,30.24,SSW,202,0.0,0.0,98,0.00,CLR,,0.00,WeatherDisplay:10.37,2013-04-24 08:45:00,
2013-04-24 00:50:00,36.1,35.6,30.24,SSW,202,0.0,0.0,98,0.00,CLR,,0.00,WeatherDisplay:10.37,2013-04-24 08:50:00,
2013-04-24 00:55:00,36.0,35.5,30.24,SSW,202,0.0,0.0,98,0.00,CLR,,0.00,WeatherDisplay:10.37,2013-04-24 08:55:00,
2013-04-24 01:00:00,35.8,35.3,30.24,SSW,202,0.0,0.0,98,0.00,CLR,,0.00,WeatherDisplay:10.37,2013-04-24 09:00:00,
2013-04-24 01:05:00,35.8,35.3,30.24,SSW,202,0.0,0.0,98,0.00,CLR,,0.00,WeatherDisplay:10.37,2013-04-24 09:05:00,
2013-04-24 01:10:00,35.8,35.3,30.24,SSW,202,0.0,0.0,98,0.00,CLR,,0.00,WeatherDisplay:10.37,2013-04-24 09:10:00,
2013-04-24 01:15:00,35.8,35.3,30.24,SSW,202,0.0,0.0,98,0.00,CLR,,0.00,WeatherDisplay:10.37,2013-04-24 09:15:00,
2013-04-24 01:20:00,35.6,35.1,30.24,SSW,202,0.0,0.0,98,0.00,CLR,,0.00,WeatherDisplay:10.37,2013-04-24 09:20:00,
2013-04-24 01:25:00,35.6,35.1,30.24,SSW,202,0.0,0.0,98,0.00,CLR,,0.00,WeatherDisplay:10.37,2013-04-24 09:25:00,
2013-04-24 01:30:00,35.6,35.1,30.24,SSW,202,0.0,0.0,98,0.00,CLR,,0.00,WeatherDisplay:10.37,2013-04-24 09:30:00,
2013-04-24 01:35:00,35.6,35.1,30.24,SSW,202,0.0,0.0,98,0.00,CLR,,0.00,WeatherDisplay:10.37,2013-04-24 09:35:00,
2013-04-24 01:40:00,35.4,34.9,30.24,SSW,202,0.0,0.0,98,0.00,CLR,,0.00,WeatherDisplay:10.37,2013-04-24 09:40:00,
2013-04-24 01:45:00,35.4,34.9,30.21,SSW,202,0.0,0.0,98,0.00,CLR,,0.00,WeatherDisplay:10.37,2013-04-24 09:45:00,
2013-04-24 01:50:00,35.6,35.1,30.21,SSW,202,0.0,0.0,98,0.00,CLR,,0.00,WeatherDisplay:10.37,2013-04-24 09:50:00,
2013-04-24 01:55:00,35.6,35.1,30.21,SSE,158,0.0,0.0,98,0.00,CLR,,0.00,WeatherDisplay:10.37,2013-04-24 09:55:00,
2013-04-24 02:00:00,35.4,34.9,30.21,SSE,158,0.9,0.0,98,0.00,CLR,,0.00,WeatherDisplay:10.37,2013-04-24 10:00:00,
2013-04-24 02:05:00,35.6,35.1,30.21,SSE,158,1.1,0.0,98,0.00,CLR,,0.00,WeatherDisplay:10.37,2013-04-24 10:05:00,
2013-04-24 02:10:00,35.8,35.3,30.21,SSE,158,1.1,0.0,98,0.00,CLR,,0.00,WeatherDisplay:10.37,2013-04-24 10:10:00,
2013-04-24 02:15:00,35.8,35.3,30.21,South,180,0.0,0.0,98,0.00,CLR,,0.00,WeatherDisplay:10.37,2013-04-24 10:15:00,
2013-04-24 02:20:00,35.8,35.3,30.21,SSW,202,0.0,0.0,98,0.00,CLR,,0.00,WeatherDisplay:10.37,2013-04-24 10:20:00,
2013-04-24 02:25:00,35.8,35.3,30.21,SSE,158,0.0,0.0,98,0.00,CLR,,0.00,WeatherDisplay:10.37,2013-04-24 10:25:00,
2013-04-24 02:30:00,35.8,35.3,30.21,South,180,0.0,0.0,98,0.00,CLR,,0.00,WeatherDisplay:10.37,2013-04-24 10:30:00,
2013-04-24 02:35:00,35.8,35.3,30.21,SSE,158,1.1,0.0,98,0.00,CLR,,0.00,WeatherDisplay:10.37,2013-04-24 10:35:00,
2013-04-24 02:40:00,35.8,35.3,30.21,SSE,158,0.0,0.0,98,0.00,CLR,,0.00,WeatherDisplay:10.37,2013-04-24 10:40:00,
2013-04-24 02:45:00,35.8,35.3,30.21,SSE,158,0.0,0.0,98,0.00,CLR,,0.00,WeatherDisplay:10.37,2013-04-24 10:45:00,
2013-04-24 02:50:00,35.8,35.3,30.21,ESE,112,0.0,0.0,98,0.00,CLR,,0.00,WeatherDisplay:10.37,2013-04-24 10:50:00,
2013-04-24 02:55:00,35.8,35.3,30.21,SSE,158,2.3,2.3,98,0.00,CLR,,0.00,WeatherDisplay:10.37,2013-04-24 10:55:00,
2013-04-24 03:00:00,35.8,35.3,30.21,ESE,112,0.0,1.1,98,0.00,CLR,,0.00,WeatherDisplay:10.37,2013-04-24 11:00:00,
2013-04-24 03:05:00,35.8,35.3,30.21,ESE,112,0.0,0.0,98,0.00,CLR,,0.00,WeatherDisplay:10.37,2013-04-24 11:05:00,
2013-04-24 03:10:00,35.8,35.3,30.21,ESE,112,0.0,0.0,98,0.00,CLR,,0.00,WeatherDisplay:10.37,2013-04-24 11:10:00,
2013-04-24 03:15:00,36.0,35.5,30.21,ESE,112,0.0,1.1,98,0.00,CLR,,0.00,WeatherDisplay:10.37,2013-04-24 11:15:00,
2013-04-24 17:44:00,36.0,35.5,30.21,SE,135,1.1,0.0,98,0.00,CLR,,0.00,WeatherDisplay:10.37,2013-04-25 01:44:00,
2013-04-24 17:49:00,36.0,35.5,30.21,SE,135,1.1,0.0,98,0.00,CLR,,0.00,WeatherDisplay:10.37,2013-04-25 01:49:00,
2013-04-24 17:54:00,38.8,34.7,29.88,North,0,2.4,2.4,85,0.00,CLR,,0.00,WeatherDisplay:10.37,2013-04-25 01:54:00,
2013-04-24 17:59:00,38.3,34.5,29.88,North,0,2.4,2.4,86,0.00,CLR,,0.00,WeatherDisplay:10.37,2013-04-25 01:59:00,
2013-04-24 18:04:00,38.1,34.6,29.88,North,0,1.6,2.2,87,0.00,CLR,,0.00,WeatherDisplay:10.37,2013-04-25 02:04:00,
2013-04-24 18:09:00,37.9,34.4,29.88,North,0,1.6,2.2,87,0.00,CLR,,0.00,WeatherDisplay:10.37,2013-04-25 02:09:00,
2013-04-24 18:14:00,38.1,34.6,29.85,North,0,1.6,2.2,87,0.00,CLR,,0.00,WeatherDisplay:10.37,2013-04-25 02:14:00,
2013-04-24 18:19:00,38.1,34.6,29.85,West,270,0.0,0.0,87,0.00,CLR,,0.00,WeatherDisplay:10.37,2013-04-25 02:19:00,
2013-04-24 18:24:00,37.6,34.3,29.85,West,270,0.0,0.0,88,0.00,CLR,,0.00,WeatherDisplay:10.37,2013-04-25 02:24:00,
2013-04-24 18:29:00,37.4,34.2,29.85,NW,315,1.6,0.0,88,0.00,CLR,,0.00,WeatherDisplay:10.37,2013-04-25 02:29:00,
2013-04-24 18:34:00,37.6,34.3,29.85,West,270,0.0,0.0,88,0.00,CLR,,0.00,WeatherDisplay:10.37,2013-04-25 02:34:00,
2013-04-24 18:39:00,37.4,34.2,29.85,WNW,292,0.0,0.0,88,0.00,CLR,,0.00,WeatherDisplay:10.37,2013-04-25 02:39:00,
2013-04-24 18:44:00,37.4,34.2,29.88,WNW,292,1.1,1.1,88,0.00,CLR,,0.00,WeatherDisplay:10.37,2013-04-25 02:44:00,
2013-04-24 18:49:00,37.4,34.2,29.88,WNW,292,0.0,0.0,88,0.00,CLR,,0.00,WeatherDisplay:10.37,2013-04-25 02:49:00,
2013-04-24 18:54:00,36.7,34.0,29.88,North,0,3.6,3.6,90,0.00,CLR,,0.00,WeatherDisplay:10.37,2013-04-25 02:54:00,
2013-04-24 18:59:00,36.5,33.6,29.85,West,270,0.0,0.0,89,0.00,CLR,,0.00,WeatherDisplay:10.37,2013-04-25 02:59:00,
2013-04-24 19:04:00,36.3,33.4,29.85,NW,315,0.0,0.0,89,0.00,CLR,,0.00,WeatherDisplay:10.37,2013-04-25 03:04:00,
2013-04-24 19:09:00,36.0,33.3,29.85,North,0,0.0,0.0,90,0.00,CLR,,0.00,WeatherDisplay:10.37,2013-04-25 03:09:00,
2013-04-24 19:14:00,36.1,33.5,29.85,North,0,0.0,0.0,90,0.00,CLR,,0.00,WeatherDisplay:10.37,2013-04-25 03:14:00,
2013-04-24 19:19:00,36.1,33.5,29.85,North,0,0.0,0.0,90,0.00,CLR,,0.00,WeatherDisplay:10.37,2013-04-25 03:19:00,
2013-04-24 19:24:00,36.3,33.9,29.85,North,0,0.0,0.0,91,0.00,CLR,,0.00,WeatherDisplay:10.37,2013-04-25 03:24:00,
2013-04-24 19:29:00,36.1,33.8,29.85,North,0,0.0,0.0,91,0.00,CLR,,0.00,WeatherDisplay:10.37,2013-04-25 03:29:00,
2013-04-24 19:34:00,36.1,34.0,29.85,North,0,0.0,0.0,92,0.00,CLR,,0.00,WeatherDisplay:10.37,2013-04-25 03:34:00,
2013-04-24 19:39:00,36.1,34.0,29.85,North,0,0.0,0.0,92,0.00,CLR,,0.00,WeatherDisplay:10.37,2013-04-25 03:39:00,
2013-04-24 19:44:00,36.3,34.2,29.83,North,0,0.0,0.0,92,0.00,CLR,,0.00,WeatherDisplay:10.37,2013-04-25 03:44:00,
2013-04-24 19:49:00,36.3,34.2,29.83,North,0,0.0,0.0,92,0.00,CLR,,0.00,WeatherDisplay:10.37,2013-04-25 03:49:00,
2013-04-24 19:54:00,36.3,34.5,29.83,North,0,0.0,0.0,93,0.00,CLR,,0.00,WeatherDisplay:10.37,2013-04-25 03:54:00,
2013-04-24 19:59:00,36.3,34.8,29.83,North,0,0.0,0.0,94,0.00,CLR,,0.00,WeatherDisplay:10.37,2013-04-25 03:59:00,
2013-04-24 20:01:00,36.3,34.8,29.83,North,0,0.0,0.0,94,0.00,CLR,,0.00,WeatherDisplay:10.37,2013-04-25 04:01:00,
2013-04-24 20:02:00,36.3,34.8,29.83,North,0,0.0,0.0,94,0.00,CLR,,0.00,WeatherDisplay:10.37,2013-04-25 04:02:00,
2013-04-24 20:04:00,36.5,34.9,29.83,North,0,0.0,0.0,94,0.00,CLR,,0.00,WeatherDisplay:10.37,2013-04-25 04:04:00,
2013-04-24 20:07:00,36.7,35.1,29.83,North,0,0.0,0.0,94,0.00,CLR,,0.00,WeatherDisplay:10.37,2013-04-25 04:07:00,
2013-04-24 20:08:00,36.7,35.1,29.83,North,0,0.0,0.0,94,0.00,CLR,,0.00,WeatherDisplay:10.37,2013-04-25 04:08:00,
2013-04-24 20:13:00,36.9,35.3,29.83,NNW,338,0.0,0.0,94,0.00,CLR,,0.00,WeatherDisplay:10.37,2013-04-25 04:13:00,
2013-04-24 20:18:00,37.0,35.5,29.83,NNW,338,0.0,0.0,94,0.00,CLR,,0.00,WeatherDisplay:10.37,2013-04-25 04:18:00,
2013-04-24 20:23:00,36.9,35.0,29.83,NNW,338,0.0,0.0,93,0.00,CLR,,0.00,WeatherDisplay:10.37,2013-04-25 04:23:00,
2013-04-24 20:28:00,36.7,34.8,29.83,ENE,68,1.1,0.0,93,0.00,CLR,,0.00,WeatherDisplay:10.37,2013-04-25 04:28:00,
2013-04-24 20:34:00,36.9,35.0,29.83,ENE,68,0.0,0.0,93,0.00,CLR,,0.00,WeatherDisplay:10.37,2013-04-25 04:34:00,
2013-04-24 20:39:00,36.9,35.0,29.83,ENE,68,0.0,0.0,93,0.00,CLR,,0.00,WeatherDisplay:10.37,2013-04-25 04:39:00,
2013-04-24 20:44:00,36.9,35.0,29.80,ENE,68,0.0,0.0,93,0.00,CLR,,0.00,WeatherDisplay:10.37,2013-04-25 04:44:00,
2013-04-24 20:49:00,36.7,34.6,29.80,ENE,68,0.0,0.0,92,0.00,CLR,,0.00,WeatherDisplay:10.37,2013-04-25 04:49:00,
2013-04-24 20:54:00,36.7,34.8,29.80,ENE,68,1.1,2.0,93,0.00,CLR,,0.00,WeatherDisplay:10.37,2013-04-25 04:54:00,
2013-04-24 20:59:00,36.7,35.1,29.80,NE,45,0.0,0.0,94,0.00,CLR,,0.00,WeatherDisplay:10.37,2013-04-25 04:59:00,
2013-04-24 21:04:00,36.5,34.7,29.80,NE,45,0.0,0.0,93,0.00,CLR,,0.00,WeatherDisplay:10.37,2013-04-25 05:04:00,
2013-04-24 21:09:00,36.3,34.5,29.80,NE,45,0.0,0.0,93,0.00,CLR,,0.00,WeatherDisplay:10.37,2013-04-25 05:09:00,
2013-04-24 21:14:00,36.1,34.3,29.80,NE,45,0.0,0.0,93,0.00,CLR,,0.00,WeatherDisplay:10.37,2013-04-25 05:14:00,
2013-04-24 21:19:00,36.3,34.5,29.80,NE,45,0.0,0.0,93,0.00,CLR,,0.00,WeatherDisplay:10.37,2013-04-25 05:19:00,
2013-04-24 21:24:00,35.8,34.0,29.80,NE,45,0.0,0.0,93,0.00,CLR,,0.00,WeatherDisplay:10.37,2013-04-25 05:24:00,
2013-04-24 21:29:00,35.6,33.8,29.80,NE,45,0.0,0.0,93,0.00,CLR,,0.00,WeatherDisplay:10.37,2013-04-25 05:29:00,
2013-04-24 21:34:00,35.4,33.6,29.83,NE,45,0.0,0.0,93,0.00,CLR,,0.00,WeatherDisplay:10.37,2013-04-25 05:34:00,
2013-04-24 21:39:00,35.2,33.4,29.83,NE,45,0.0,0.0,93,0.00,CLR,,0.00,WeatherDisplay:10.37,2013-04-25 05:39:00,
2013-04-24 21:44:00,35.2,33.4,29.80,NE,45,0.0,0.0,93,0.00,CLR,,0.00,WeatherDisplay:10.37,2013-04-25 05:44:00,
2013-04-24 21:49:00,34.9,33.1,29.80,NE,45,0.0,0.0,93,0.00,CLR,,0.00,WeatherDisplay:10.37,2013-04-25 05:49:00,
2013-04-24 21:54:00,34.7,32.9,29.80,NE,45,0.0,0.0,93,0.00,CLR,,0.00,WeatherDisplay:10.37,2013-04-25 05:54:00,
2013-04-24 21:59:00,34.5,33.0,29.80,NNW,338,0.0,0.0,94,0.00,CLR,,0.00,WeatherDisplay:10.37,2013-04-25 05:59:00,
2013-04-24 22:04:00,34.3,32.8,29.80,SSW,202,0.0,0.0,94,0.00,CLR,,0.00,WeatherDisplay:10.37,2013-04-25 06:04:00,
2013-04-24 22:09:00,34.2,32.6,29.80,WSW,248,0.0,0.0,94,0.00,CLR,,0.00,WeatherDisplay:10.37,2013-04-25 06:09:00,
2013-04-24 22:14:00,34.2,32.9,29.80,West,270,0.0,0.0,95,0.00,CLR,,0.00,WeatherDisplay:10.37,2013-04-25 06:14:00,
2013-04-24 22:19:00,34.0,32.7,29.80,West,270,0.0,0.0,95,0.00,CLR,,0.00,WeatherDisplay:10.37,2013-04-25 06:19:00,
2013-04-24 22:24:00,34.0,32.7,29.80,South,180,0.0,0.0,95,0.00,CLR,,0.00,WeatherDisplay:10.37,2013-04-25 06:24:00,
2013-04-24 22:29:00,34.0,32.7,29.80,South,180,0.0,0.0,95,0.00,CLR,,0.00,WeatherDisplay:10.37,2013-04-25 06:29:00,
2013-04-24 22:34:00,34.0,33.0,29.80,ESE,112,0.0,0.0,96,0.00,CLR,,0.00,WeatherDisplay:10.37,2013-04-25 06:34:00,
2013-04-24 22:39:00,33.8,32.5,29.80,ESE,112,0.0,0.0,95,0.00,CLR,,0.00,WeatherDisplay:10.37,2013-04-25 06:39:00,
2013-04-24 22:44:00,33.8,32.5,29.77,SW,225,0.0,0.0,95,0.00,CLR,,0.00,WeatherDisplay:10.37,2013-04-25 06:44:00,
2013-04-24 22:49:00,33.8,32.5,29.77,SW,225,0.0,0.0,95,0.00,CLR,,0.00,WeatherDisplay:10.37,2013-04-25 06:49:00,
2013-04-24 22:54:00,34.0,32.7,29.77,ESE,112,0.0,0.0,95,0.00,CLR,,0.00,WeatherDisplay:10.37,2013-04-25 06:54:00,
2013-04-24 22:59:00,34.5,33.2,29.77,SSE,158,0.0,0.0,95,0.00,CLR,,0.00,WeatherDisplay:10.37,2013-04-25 06:59:00,
2013-04-24 23:04:00,34.9,33.9,29.77,SSW,202,0.0,0.0,96,0.00,CLR,,0.00,WeatherDisplay:10.37,2013-04-25 07:04:00,
2013-04-24 23:09:00,35.2,34.0,29.77,South,180,0.0,0.0,95,0.00,CLR,,0.00,WeatherDisplay:10.37,2013-04-25 07:09:00,
2013-04-24 23:14:00,35.4,33.9,29.77,South,180,0.0,0.0,94,0.00,CLR,,0.00,WeatherDisplay:10.37,2013-04-25 07:14:00,
2013-04-24 23:19:00,35.4,33.6,29.77,West,270,0.0,0.0,93,0.00,CLR,,0.00,WeatherDisplay:10.37,2013-04-25 07:19:00,
2013-04-24 23:24:00,35.6,33.0,29.77,WNW,292,0.0,0.0,90,0.00,CLR,,0.00,WeatherDisplay:10.37,2013-04-25 07:24:00,
2013-04-24 23:29:00,35.8,32.3,29.77,West,270,1.4,1.4,87,0.00,CLR,,0.00,WeatherDisplay:10.37,2013-04-25 07:29:00,
2013-04-24 23:34:00,36.0,31.3,29.77,WNW,292,0.0,0.0,83,0.00,CLR,,0.00,WeatherDisplay:10.37,2013-04-25 07:34:00,
2013-04-24 23:39:00,36.1,30.3,29.77,WNW,292,1.1,0.0,79,0.00,CLR,,0.00,WeatherDisplay:10.37,2013-04-25 07:39:00,
2013-04-24 23:44:00,36.1,29.6,29.74,NW,315,0.0,1.1,77,0.00,CLR,,0.00,WeatherDisplay:10.37,2013-04-25 07:44:00,
2013-04-24 23:49:00,36.1,29.3,29.74,North,0,2.3,2.3,76,0.00,CLR,,0.00,WeatherDisplay:10.37,2013-04-25 07:49:00,
2013-04-24 23:54:00,36.3,29.5,29.74,NNW,338,5.8,5.8,76,0.00,CLR,,0.00,WeatherDisplay:10.37,2013-04-25 07:54:00,
2013-04-24 23:59:00,36.5,30.3,29.77,NW,315,3.5,3.8,78,0.00,CLR,,0.00,WeatherDisplay:10.37,2013-04-25 07:59:00,